Location: Huesca
(42.1318°N, 0.4078°W)
Time: 08:34:55
(UTC+02:00)

TIGRISAT - Pass Details

Date: 25 April 2024
Orbit: 594 x 672 km, 97.7° (Epoch: 20 May)

Event Time Altitude Azimuth Distance (km) Brightness Sun altitude
Rises 05:51:09 0° 162° (SSE) 2,930 ? -13.2°
Reaches altitude 10° 05:53:22 10° 161° (SSE) 2,013 ? -12.9°
Maximum altitude 05:57:44 78° 76° (ENE) 643 ? -12.2°
Drops below altitude 10° 06:02:02 10° 350° (N) 1,980 ? -11.5°
Sets 06:04:12 0° 350° (N) 2,878 ? -11.1°
